GW4466 Weather Reports


Display with metric or nautical units.
time (UTC)temp
F
wind
direction
speed
MPH
gust
MPH
rain 1hr
in
rain 24hr
in
rain mn
in
humidity
%
barometer
mb
20260505102058 61 182 7.0 11.0 0.00 0.00 0.00 66 1008.7
20260505101559 61 153 9.0 12.0 0.00 0.00 0.00 66 1009.0
20260505101058 61 179 6.0 12.0 0.00 0.00 0.00 66 1008.7
20260505100559 61 190 5.0 16.0 0.00 0.00 0.00 65 1008.7
20260505100059 61 172 7.0 16.0 0.00 0.00 0.00 65 1008.3
20260505095559 61 189 9.0 13.0 0.00 0.00 0.00 65 1008.3
20260505095059 61 155 7.0 14.0 0.00 0.00 0.00 65 1008.3
20260505094558 61 179 6.0 14.0 0.00 0.00 0.00 65 1008.0
20260505094058 61 180 8.0 13.0 0.00 0.00 0.00 65 1008.3
20260505093558 61 201 4.0 13.0 0.00 0.00 0.00 65 1008.3
20260505093059 61 189 6.0 13.0 0.00 0.00 0.00 65 1008.3
20260505092559 61 161 8.0 14.0 0.00 0.00 0.00 65 1008.3
20260505092059 62 166 7.0 14.0 0.00 0.00 0.00 64 1008.3
20260505091559 62 175 11.0 14.0 0.00 0.00 0.00 64 1008.0
20260505091059 62 166 10.0 13.0 0.00 0.00 0.00 64 1008.3
20260505090559 62 163 6.0 12.0 0.00 0.00 0.00 64 1008.3
20260505090059 62 169 6.0 13.0 0.00 0.00 0.00 64 1008.3
20260505085559 62 157 10.0 13.0 0.00 0.00 0.00 64 1008.3
20260505085059 62 159 9.0 11.0 0.00 0.00 0.00 64 1008.3
20260505084558 62 182 8.0 11.0 0.00 0.00 0.00 64 1008.3
20260505084059 62 146 7.0 11.0 0.00 0.00 0.00 64 1008.3
20260505083559 62 171 7.0 11.0 0.00 0.00 0.00 64 1008.3
20260505083058 62 143 3.0 13.0 0.00 0.00 0.00 63 1008.0
20260505082559 62 149 7.0 13.0 0.00 0.00 0.00 62 1008.3
20260505082058 62 138 6.0 12.0 0.00 0.00 0.00 62 1008.3
20260505081558 62 158 7.0 11.0 0.00 0.00 0.00 62 1008.0
20260505081058 62 174 8.0 11.0 0.00 0.00 0.00 62 1008.3
20260505080558 62 176 5.0 12.0 0.00 0.00 0.00 62 1008.3
20260505080059 63 190 7.0 12.0 0.00 0.00 0.00 61 1008.7
20260505075559 63 178 6.0 10.0 0.00 0.00 0.00 61 1008.7
20260505075059 63 176 8.0 10.0 0.00 0.00 0.00 61 1008.3
20260505074559 63 180 7.0 10.0 0.00 0.00 0.00 60 1008.3
20260505074059 63 178 6.0 11.0 0.00 0.00 0.00 60 1008.7
20260505073558 63 183 5.0 11.0 0.00 0.00 0.00 60 1008.7
20260505073059 63 174 8.0 11.0 0.00 0.00 0.00 60 1008.7
20260505072559 63 160 6.0 12.0 0.00 0.00 0.00 59 1009.0
20260505072059 64 184 7.0 14.0 0.00 0.00 0.00 59 1009.0
20260505071559 64 182 4.0 14.0 0.00 0.00 0.00 59 1009.0
20260505071059 64 185 6.0 13.0 0.00 0.00 0.00 59 1009.0
20260505070559 64 170 8.0 13.0 0.00 0.00 0.00 59 1009.0
20260505070059 64 183 5.0 11.0 0.00 0.00 0.00 59 1009.0
20260505065558 64 184 5.0 11.0 0.00 0.00 0.00 58 1009.0
20260505065059 64 188 6.0 10.0 0.00 0.00 0.00 58 1009.4
20260505064558 64 171 6.0 9.0 0.00 0.00 0.00 59 1009.0
20260505064059 64 180 5.0 10.0 0.00 0.00 0.00 59 1009.0
20260505063559 64 177 6.0 10.0 0.00 0.00 0.00 59 1009.0
20260505063059 64 174 5.0 11.0 0.00 0.00 0.00 59 1009.0
20260505062559 64 168 5.0 11.0 0.00 0.00 0.00 58 1009.0
20260505062058 64 184 7.0 11.0 0.00 0.00 0.00 59 1009.4
20260505061558 64 179 8.0 9.0 0.00 0.00 0.00 59 1009.0
20260505061058 64 185 4.0 9.0 0.00 0.00 0.00 58 1009.0
20260505060558 64 170 8.0 9.0 0.00 0.00 0.00 58 1009.4
20260505060059 64 164 5.0 8.0 0.00 0.00 0.00 59 1009.4
20260505055558 64 158 7.0 9.0 0.00 0.00 0.00 58 1009.7
20260505055059 64 157 7.0 9.0 0.00 0.00 0.00 58 1009.4
20260505054559 64 165 7.0 9.0 0.00 0.00 0.00 57 1009.4
20260505054059 65 126 5.0 9.0 0.00 0.00 0.00 57 1009.7
20260505053559 65 159 7.0 9.0 0.00 0.00 0.00 56 1009.4
20260505053058 65 154 6.0 9.0 0.00 0.00 0.00 56 1009.7
20260505052558 65 157 5.0 8.0 0.00 0.00 0.00 56 1009.7
20260505052059 65 167 5.0 8.0 0.00 0.00 0.00 56 1009.7
20260505051559 65 154 6.0 9.0 0.00 0.00 0.00 56 1009.7
20260505051059 65 162 7.0 9.0 0.00 0.00 0.00 56 1009.4
20260505050559 66 160 6.0 9.0 0.00 0.00 0.00 55 1009.4
20260505041558 67 137 4.0 9.0 0.00 0.00 0.00 51 1009.4
20260505041058 67 137 4.0 9.0 0.00 0.00 0.00 51 1009.7
20260505040558 67 165 7.0 9.0 0.00 0.00 0.00 51 1009.4
20260505040058 67 157 6.0 8.0 0.00 0.00 0.00 51 1009.0
20260505035559 68 161 6.0 8.0 0.00 0.00 0.00 51 1009.4
20260505035059 68 170 6.0 8.0 0.00 0.00 0.00 51 1009.4
20260505034559 68 171 5.0 9.0 0.00 0.00 0.00 51 1009.0
20260505034059 68 152 6.0 9.0 0.00 0.00 0.00 51 1009.0
20260505033558 68 186 6.0 9.0 0.00 0.00 0.00 50 1009.4
20260505033059 68 186 6.0 9.0 0.00 0.00 0.00 50 1009.4
20260505032558 68 174 4.0 10.0 0.00 0.00 0.00 50 1009.4
20260505032059 68 180 4.0 10.0 0.00 0.00 0.00 49 1009.4
20260505031559 69 171 7.0 11.0 0.00 0.00 0.00 49 1009.4
20260505031059 69 171 7.0 11.0 0.00 0.00 0.00 49 1009.0
20260505030559 69 156 10.0 13.0 0.00 0.00 0.00 48 1009.4
20260505030059 69 156 10.0 13.0 0.00 0.00 0.00 48 1009.0
20260505025558 69 169 11.0 13.0 0.00 0.00 0.00 48 1009.0
20260505024059 70 165 9.0 12.0 0.00 0.00 0.00 47 1009.0
20260505023559 70 165 9.0 12.0 0.00 0.00 0.00 47 1009.0
20260505023059 70 165 9.0 12.0 0.00 0.00 0.00 47 1009.0
20260505022559 70 173 7.0 12.0 0.00 0.00 0.00 47 1009.0
20260505022059 70 150 8.0 12.0 0.00 0.00 0.00 46 1009.0
20260505021559 71 151 7.0 12.0 0.00 0.00 0.00 46 1009.4
20260505021058 70 183 5.0 11.0 0.00 0.00 0.00 46 1009.0
20260505020559 71 158 6.0 11.0 0.00 0.00 0.00 46 1009.0
20260505020059 71 172 8.0 11.0 0.00 0.00 0.00 45 1009.0
20260505015558 71 172 8.0 11.0 0.00 0.00 0.00 45 1009.0
20260505015059 71 166 9.0 11.0 0.00 0.00 0.00 45 1008.7
20260505014559 71 169 9.0 11.0 0.00 0.00 0.00 45 1009.0
20260505014059 72 168 8.0 11.0 0.00 0.00 0.00 43 1009.0
20260505013558 72 168 8.0 11.0 0.00 0.00 0.00 43 1009.0
20260505013059 72 181 11.0 11.0 0.00 0.00 0.00 44 1008.7
20260505012559 72 180 7.0 11.0 0.00 0.00 0.00 44 1008.7
20260505012058 72 162 7.0 10.0 0.00 0.00 0.00 44 1008.7
20260505011558 72 192 6.0 10.0 0.00 0.00 0.00 43 1008.7
20260505011059 72 180 8.0 10.0 0.00 0.00 0.00 43 1008.7
20260505010559 73 184 7.0 13.0 0.00 0.00 0.00 42 1008.7
20260505010058 73 184 7.0 13.0 0.00 0.00 0.00 42 1009.0
20260505005559 73 202 9.0 12.0 0.00 0.00 0.00 42 1008.7
20260505005059 73 185 7.0 12.0 0.00 0.00 0.00 42 1009.0
20260505004559 73 187 8.0 12.0 0.00 0.00 0.00 42 1008.7
20260505003058 74 185 11.0 15.0 0.00 0.00 0.00 40 1008.7
20260505002559 74 185 11.0 15.0 0.00 0.00 0.00 40 1008.3
20260505002058 74 185 11.0 15.0 0.00 0.00 0.00 40 1008.7
20260505001558 75 189 10.0 14.0 0.00 0.00 0.00 39 1008.3
20260505001058 75 189 10.0 16.0 0.00 0.00 0.00 39 1008.0
20260505000558 75 178 13.0 16.0 0.00 0.00 0.00 39 1008.3
20260505000059 75 182 10.0 16.0 0.00 0.00 0.00 39 1008.3
20260504235558 75 140 5.0 13.0 0.00 0.00 0.00 39 1008.3
20260504235058 75 140 5.0 15.0 0.00 0.00 0.00 39 1008.7
20260504234558 75 140 5.0 15.0 0.00 0.00 0.00 39 1008.7
20260504234059 76 194 14.0 22.0 0.00 0.00 0.00 39 1008.3
20260504233559 76 168 3.0 22.0 0.00 0.00 0.00 38 1008.3
20260504233059 76 187 15.0 22.0 0.00 0.00 0.00 37 1008.3
20260504232559 76 190 7.0 18.0 0.00 0.00 0.00 38 1008.3
20260504232059 76 106 3.0 18.0 0.00 0.00 0.00 38 1008.3
20260504231559 76 198 11.0 18.0 0.00 0.00 0.00 38 1008.3
20260504231059 76 206 3.0 18.0 0.00 0.00 0.00 39 1008.3
20260504230558 77 195 9.0 15.0 0.00 0.00 0.00 37 1008.7
20260504230059 77 195 9.0 15.0 0.00 0.00 0.00 37 1008.3
20260504225559 76 179 11.0 20.0 0.00 0.00 0.00 37 1008.7
20260504225059 76 179 11.0 20.0 0.00 0.00 0.00 37 1008.3
20260504224558 77 203 12.0 23.0 0.00 0.00 0.00 37 1008.3
20260504224059 77 240 6.0 23.0 0.00 0.00 0.00 37 1008.3
20260504223558 77 194 19.0 23.0 0.00 0.00 0.00 36 1008.0
20260504223059 77 191 18.0 19.0 0.00 0.00 0.00 36 1008.3
20260504222559 77 186 13.0 24.0 0.00 0.00 0.00 34 1008.3
20260504221559 77 184 21.0 27.0 0.00 0.00 0.00 34 1008.7
20260504221058 77 191 20.0 22.0 0.00 0.00 0.00 34 1008.3
20260504220559 77 155 8.0 25.0 0.00 0.00 0.00 35 1008.7
20260504220058 77 155 8.0 25.0 0.00 0.00 0.00 35 1008.7
20260504215558 77 181 21.0 25.0 0.00 0.00 0.00 35 1008.7
20260504215058 77 179 8.0 22.0 0.00 0.00 0.00 36 1008.7
20260504214558 77 177 15.0 22.0 0.00 0.00 0.00 35 1008.3
20260504214058 77 186 9.0 22.0 0.00 0.00 0.00 35 1008.7
20260504213559 77 185 20.0 22.0 0.00 0.00 0.00 34 1008.7
20260504213058 77 214 12.0 22.0 0.00 0.00 0.00 35 1008.7
20260504212558 77 184 12.0 24.0 0.00 0.00 0.00 36 1008.7
20260504212059 77 182 22.0 24.0 0.00 0.00 0.00 36 1008.7
20260504211559 77 197 17.0 24.0 0.00 0.00 0.00 36 1008.7
20260504211058 77 197 9.0 13.0 0.00 0.00 0.00 36 1008.7
20260504210559 77 197 9.0 21.0 0.00 0.00 0.00 36 1009.0
20260504210059 77 120 6.0 21.0 0.00 0.00 0.00 37 1009.0
20260504205559 78 240 6.0 14.0 0.00 0.00 0.00 37 1009.0
20260504205058 77 209 2.0 14.0 0.00 0.00 0.00 39 1009.0
20260504203058 77 143 9.0 16.0 0.00 0.00 0.00 38 1009.4
20260504202559 77 143 9.0 16.0 0.00 0.00 0.00 38 1009.4
20260504202058 77 143 9.0 18.0 0.00 0.00 0.00 38 1009.0
20260504201558 78 182 8.0 18.0 0.00 0.00 0.00 38 1009.7
20260504201059 78 173 10.0 18.0 0.00 0.00 0.00 37 1009.7
20260504200559 77 197 9.0 23.0 0.00 0.00 0.00 38 1009.7
20260504200059 77 199 20.0 23.0 0.00 0.00 0.00 37 1009.7
20260504195558 77 199 20.0 23.0 0.00 0.00 0.00 37 1009.7
20260504195059 77 199 20.0 23.0 0.00 0.00 0.00 37 1009.7
20260504194558 76 167 5.0 18.0 0.00 0.00 0.00 40 1009.7
20260504194058 77 194 16.0 18.0 0.00 0.00 0.00 38 1010.1
20260504193558 77 209 3.0 13.0 0.00 0.00 0.00 40 1010.1
20260504193058 77 182 13.0 13.0 0.00 0.00 0.00 40 1010.1
20260504192558 77 182 13.0 19.0 0.00 0.00 0.00 39 1010.1
20260504192058 77 143 9.0 19.0 0.00 0.00 0.00 39 1010.1
20260504191559 77 184 5.0 13.0 0.00 0.00 0.00 39 1010.4
20260504191059 77 184 5.0 16.0 0.00 0.00 0.00 37 1010.4
20260504190559 77 188 9.0 16.0 0.00 0.00 0.00 37 1010.4
20260504190058 76 170 7.0 16.0 0.00 0.00 0.00 41 1010.8
20260504185558 76 170 7.0 16.0 0.00 0.00 0.00 41 1010.1
20260504185059 76 194 15.0 16.0 0.00 0.00 0.00 41 1010.1
20260504184558 77 182 9.0 15.0 0.00 0.00 0.00 40 1010.4
20260504184058 76 253 2.0 15.0 0.00 0.00 0.00 40 1010.8
20260504183558 76 253 2.0 15.0 0.00 0.00 0.00 40 1010.4
20260504183059 76 186 12.0 15.0 0.00 0.00 0.00 41 1010.8
20260504182559 76 186 12.0 17.0 0.00 0.00 0.00 41 1010.8
20260504181558 75 227 11.0 17.0 0.00 0.00 0.00 42 1010.8
20260504181058 75 227 11.0 20.0 0.00 0.00 0.00 42 1010.8
20260504180559 76 229 18.0 20.0 0.00 0.00 0.00 42 1010.8
20260504180059 76 229 18.0 20.0 0.00 0.00 0.00 42 1010.8
20260504175558 76 229 18.0 20.0 0.00 0.00 0.00 42 1010.8
20260504175059 75 194 10.0 19.0 0.00 0.00 0.00 43 1011.1
20260504174559 75 212 13.0 21.0 0.00 0.00 0.00 44 1010.8
20260504174059 75 212 13.0 21.0 0.00 0.00 0.00 44 1011.1
20260504173558 76 179 18.0 21.0 0.00 0.00 0.00 43 1010.8
20260504173058 74 204 11.0 18.0 0.00 0.00 0.00 44 1011.5
20260504172559 74 183 15.0 18.0 0.00 0.00 0.00 44 1011.1
20260504172058 74 183 15.0 20.0 0.00 0.00 0.00 44 1011.5
20260504171558 74 183 15.0 20.0 0.00 0.00 0.00 44 1011.5
20260504171058 74 240 9.0 20.0 0.00 0.00 0.00 44 1011.5
20260504170558 74 127 4.0 20.0 0.00 0.00 0.00 45 1011.8
20260504151058 69 164 9.0 15.0 0.00 0.00 0.00 52 1012.8
20260504150558 68 160 7.0 18.0 0.00 0.00 0.00 52 1012.8
20260504140842 66 213 7.0 17.0 0.00 0.00 0.00 56 1013.2
20260504140342 66 213 7.0 17.0 0.00 0.00 0.00 56 1012.8
20260504130800 61 178 6.0 9.0 0.00 0.00 0.00 62 1013.2
20260504130300 60 166 5.0 10.0 0.00 0.00 0.00 62 1013.2
20260504120300 57 125 3.0 9.0 0.00 0.00 0.00 63 1012.8
20260504110300 56 165 6.0 8.0 0.00 0.00 0.00 63 1012.5